[[{"header":{"parameterUnit":"m.s-1","parameterCategory":1,"la1":30.2991,"la2":30.254,"lo1":-89.0895,"lo2":-89.0444,"dy":0.0017,"dx":0.0017,"nx":28,"ny":28,"refTime":"2024-08-16T03:00:00:Z","depth":0,"parameterNumber":2,"parameterNumberName":"U-component_of_WINDS"},"data":[0,0,0,0,0,0,0,0,0,0,0,0,0,0,0,0,0,0,0,0,0,0,0,0,0,0,0,0,0,0,0,0,0,0,0,0,0,0,0,0,0,0,0,0,0,0,0,0,0,0,0,0,0,0,0,0,0,0,0.6654,0.6652,0,0.6536,0.6535,0.6533,0.6465,0.6465,0.6465,0.6465,0.6344,0.6341,0.6338,0,0,0,0,0,0,0,0,0,0,0,0,0,0.6818,0.6816,0.6654,0.6652,0.6651,0.6536,0.6535,0.6533,0.6465,0.6465,0.6465,0.6464,0.6345,0.6341,0.6338,0,0,0,0,0,0,0,0,0,0,0,0,0,0.6728,0.6815,0.6654,0.6603,0.6598,0.6536,0.6534,0.6532,0.6465,0.6465,0.6465,0.6464,0.6346,0.6342,0.6337,0.6317,0,0,0.6324,0.6322,0,0,0,0,0,0,0,0,0.6734,0.6722,0.6612,0.6607,0.66,0.6515,0.6548,0.646,0.6466,0.6516,0.6465,0.6464,0.6401,0.6392,0.6371,0.6312,0.6307,0.6323,0.6321,0.6319,0.6317,0,0,0,0,0,0,0,0.674,0.6727,0.6607,0.6611,0.6603,0.6586,0.6573,0.6531,0.6462,0.6511,0.6506,0.6493,0.6398,0.6375,0.6367,0.6305,0.6323,0.6319,0.6317,0.6315,0.622,0.6221,0,0,0,0,0,0,0.6754,0.6733,0.6611,0.6604,0.6667,0.6583,0.6568,0.6543,0.6462,0.645,0.6493,0.649,0.6383,0.6373,0.6363,0.6332,0.6319,0.6314,0.6312,0.622,0.622,0.6221,0,0,0,0,0,0,0.6758,0.6744,0.6616,0.6667,0.6649,0.6581,0.6552,0.6541,0.6518,0.6449,0.6436,0.6483,0.6382,0.6369,0.6329,0.6327,0.6312,0.6308,0.622,0.622,0.6221,0.6273,0,0,0,0,0,0,0.6763,0.6746,0.6738,0.6667,0.6647,0.6584,0.6552,0.6539,0.6511,0.6505,0.6436,0.6424,0.6381,0.6336,0.6324,0.6321,0.6305,0.622,0.622,0.622,0.6271,0.6275,0.6278,0,0,0,0,0,0.6769,0.6759,0.6738,0.6724,0.6636,0.6584,0.6572,0.6523,0.6511,0.6502,0.6457,0.6426,0.633,0.6332,0.6319,0.6314,0.622,0.622,0.622,0.6269,0.6274,0.6278,0,0,0,0,0,0,0.6832,0.6748,0.6725,0.6691,0.6645,0.6573,0.6561,0.653,0.6487,0.6484,0.6425,0.6409,0.6374,0.634,0.6344,0.6289,0.6271,0.6269,0.6313,0.6317,0.6321,0.6329,0.6301,0,0,0,0,0,0.6842,0.6808,0.6736,0.6713,0.6691,0.663,0.6606,0.6571,0.6521,0.6502,0.6454,0.6407,0.6365,0.6339,0.6297,0.6266,0.6248,0.6256,0.6259,0.6263,0.6261,0.624,0.6241,0.6222,0.6222,0.6222,0,0,0.6862,0.6812,0.6794,0.6724,0.6684,0.6649,0.6614,0.6579,0.6552,0.6496,0.6455,0.6418,0.6361,0.6324,0.6305,0.6294,0.6263,0.6263,0.6266,0.6263,0.624,0.6242,0.6244,0.6222,0.6222,0.6222,0,0,0.6881,0.684,0.6815,0.6776,0.6716,0.6675,0.6669,0.66,0.6573,0.6531,0.6488,0.6454,0.6385,0.6345,0.6316,0.6316,0.6286,0.6304,0.6323,0.6303,0.6304,0.6305,0.6304,0.6305,0.6303,0.6303,0.6303,0,0.6914,0.6859,0.6806,0.6772,0.6742,0.6689,0.6663,0.6627,0.6557,0.6537,0.6526,0.6435,0.6393,0.6345,0.6345,0.6324,0.6314,0.6312,0.6309,0.6309,0.6309,0.6307,0.6307,0.6306,0.6306,0.6305,0.6305,0,0.6901,0.6864,0.6851,0.6783,0.6751,0.6722,0.6663,0.6637,0.6605,0.6565,0.652,0.6468,0.6413,0.6399,0.6368,0.6346,0.6341,0.632,0.63,0.6315,0.6312,0.6311,0.6309,0.6309,0.6308,0.6307,0,0,0.6957,0.6859,0.6855,0.6823,0.6752,0.6722,0.6689,0.6635,0.6613,0.6566,0.6535,0.6476,0.6456,0.6422,0.6386,0.6368,0.637,0.6349,0.6346,0.6353,0.634,0.6356,0.6356,0.6349,0.6348,0.6348,0.6344,0,0.6965,0.6903,0.6853,0.681,0.6773,0.6722,0.6692,0.6645,0.6606,0.6569,0.6526,0.6484,0.6461,0.644,0.642,0.6374,0.6366,0.6373,0.6319,0.6318,0.6334,0.6354,0.6371,0.637,0.6343,0.6342,0.6342,0,0.6965,0.6919,0.6872,0.6802,0.6785,0.676,0.6705,0.6671,0.6615,0.6588,0.655,0.6511,0.6472,0.6457,0.6401,0.6408,0.6382,0.6355,0.6354,0.6347,0.6331,0.6347,0.6369,0.6369,0.634,0.634,0.634,0,0.7009,0.6935,0.6897,0.6871,0.6789,0.6772,0.6737,0.6681,0.6651,0.6603,0.6583,0.6531,0.6503,0.6463,0.6411,0.6405,0.6361,0.6341,0.6336,0.6337,0.6329,0.633,0.6347,0.6314,0.6314,0.6314,0.6314,0,0.7022,0.6995,0.6915,0.6891,0.6859,0.6801,0.677,0.6731,0.6681,0.6648,0.66,0.657,0.6503,0.6464,0.6423,0.6383,0.637,0.6346,0.6336,0.635,0.6353,0.6333,0.6331,0.6314,0.6314,0.6314,0.6314,0,0.7066,0.7012,0.6966,0.6892,0.6872,0.6851,0.6787,0.6761,0.6719,0.6677,0.6664,0.6598,0.6549,0.6493,0.6427,0.6399,0.6361,0.6346,0.638,0.6374,0.6371,0.6372,0.6375,0.6372,0.6342,0.6343,0.6343,0,0.7078,0.7055,0.6978,0.6952,0.6919,0.6878,0.6847,0.6788,0.6758,0.6691,0.6673,0.6621,0.6576,0.6501,0.6446,0.6394,0.6377,0.6381,0.6369,0.6384,0.6376,0.6377,0.6374,0.6385,0.6386,0.6386,0.6387,0,0.7104,0.7077,0.7034,0.6981,0.6945,0.69,0.6853,0.6835,0.6767,0.6734,0.6684,0.6649,0.658,0.6529,0.647,0.6432,0.6398,0.6391,0.6387,0.6401,0.6421,0.6409,0.6389,0.6391,0.6391,0.639,0.639,0.639,0.7131,0.7108,0.7049,0.7002,0.696,0.6917,0.6889,0.6842,0.6799,0.6739,0.6707,0.6657,0.6599,0.6516,0.648,0.6439,0.6427,0.6422,0.642,0.6419,0.6423,0.6428,0.6428,0.6428,0.6427,0.6427,0.6427,0,0.7153,0.7113,0.707,0.7005,0.6968,0.6938,0.6884,0.6854,0.6811,0.676,0.6717,0.6658,0.6607,0.6547,0.6492,0.647,0.6453,0.6458,0.6458,0.645,0.6437,0.6446,0.6473,0.6473,0.6473,0.6473,0.6473,0.6473,0.7161,0.7119,0.7085,0.7022,0.6981,0.6932,0.6903,0.6863,0.6822,0.6758,0.6715,0.6677,0.6621,0.6561,0.6513,0.6496,0.6478,0.6487,0.6466,0.6455,0.6451,0.6448,0.6455,0.6484,0.6484,0.6482,0.6482,0.6482]},{"header":{"parameterUnit":"m.s-1","parameterCategory":1,"la1":30.2991,"la2":30.254,"lo1":-89.0895,"lo2":-89.0444,"dy":0.0017,"dx":0.0017,"nx":28,"ny":28,"refTime":"2024-08-16T03:00:00:Z","depth":0,"parameterNumber":3,"parameterNumberName":"V-component_of_WINDS"},"data":[0,0,0,0,0,0,0,0,0,0,0,0,0,0,0,0,0,0,0,0,0,0,0,0,0,0,0,0,0,0,0,0,0,0,0,0,0,0,0,0,0,0,0,0,0,0,0,0,0,0,0,0,0,0,0,0,0,0,2.0505,2.0505,0,2.0489,2.0488,2.0488,2.0511,2.0512,2.0513,2.0513,2.0493,2.0492,2.0491,0,0,0,0,0,0,0,0,0,0,0,0,0,2.0554,2.0553,2.0505,2.0505,2.0505,2.0489,2.0488,2.0488,2.0511,2.0512,2.0513,2.0514,2.0494,2.0492,2.049,0,0,0,0,0,0,0,0,0,0,0,0,0,2.0534,2.0553,2.0505,2.0514,2.0515,2.0489,2.0488,2.0488,2.0511,2.0512,2.0513,2.0514,2.0494,2.0492,2.049,2.0453,0,0,2.0484,2.0483,0,0,0,0,0,0,0,0,2.0535,2.0533,2.0513,2.0514,2.0514,2.0503,2.0498,2.0476,2.051,2.0512,2.0513,2.0515,2.0495,2.0493,2.0487,2.0452,2.0451,2.0484,2.0483,2.0482,2.0481,0,0,0,0,0,0,0,2.0537,2.0533,2.0499,2.0513,2.0514,2.0518,2.0517,2.0494,2.0497,2.0512,2.0514,2.0512,2.0496,2.0489,2.0487,2.0451,2.0484,2.0482,2.0481,2.048,2.0383,2.0382,0,0,0,0,0,0,2.0538,2.0534,2.0499,2.0498,2.0528,2.0516,2.0515,2.0505,2.0497,2.0497,2.0511,2.0513,2.0492,2.0489,2.0486,2.0441,2.0482,2.048,2.0479,2.0385,2.0383,2.0382,0,0,0,0,0,0,2.0538,2.0534,2.05,2.0517,2.0513,2.0514,2.0504,2.0504,2.0498,2.0496,2.0496,2.0503,2.0493,2.0489,2.0461,2.0441,2.0479,2.0478,2.0386,2.0384,2.0382,2.0351,0,0,0,0,0,0,2.054,2.0534,2.0521,2.0516,2.0512,2.0476,2.0502,2.0503,2.0495,2.0497,2.0489,2.0489,2.0493,2.0464,2.0459,2.0439,2.0476,2.0388,2.0385,2.0383,2.0354,2.0348,2.0343,0,0,0,0,0,2.0541,2.0512,2.052,2.0516,2.0495,2.0474,2.0472,2.0478,2.0493,2.0479,2.0478,2.049,2.0444,2.0461,2.0456,2.0434,2.0389,2.0386,2.0383,2.0356,2.0349,2.0343,0,0,0,0,0,0,2.0514,2.0512,2.0521,2.0489,2.0482,2.0478,2.0461,2.0471,2.0458,2.0461,2.0468,2.0466,2.0436,2.0433,2.0451,2.0397,2.0419,2.0415,2.04,2.0394,2.0388,2.0389,2.0474,0,0,0,0,0,2.0504,2.0488,2.0488,2.046,2.0456,2.0459,2.045,2.0456,2.0448,2.0445,2.0442,2.0433,2.0416,2.0405,2.039,2.0354,2.0352,2.0337,2.0331,2.0327,2.0322,2.0301,2.0294,2.0371,2.0371,2.0371,0,0,2.0484,2.0481,2.047,2.0454,2.0449,2.0431,2.0456,2.0437,2.0423,2.0441,2.0414,2.0412,2.0402,2.037,2.0355,2.0366,2.0301,2.0323,2.032,2.0317,2.0297,2.029,2.0283,2.0369,2.037,2.037,0,0,2.0437,2.0434,2.041,2.0405,2.0397,2.04,2.0394,2.0389,2.0388,2.0362,2.0375,2.0358,2.0331,2.0323,2.0315,2.0266,2.0275,2.0261,2.0232,2.0211,2.0205,2.02,2.018,2.0173,2.0257,2.0257,2.0257,0,2.0412,2.0387,2.0396,2.0376,2.0367,2.0385,2.036,2.0354,2.0341,2.0334,2.0347,2.0312,2.0307,2.0272,2.026,2.0254,2.0246,2.0261,2.0206,2.02,2.0195,2.0176,2.0169,2.0255,2.0255,2.0255,2.0255,0,2.0355,2.0338,2.0319,2.0307,2.0297,2.0274,2.0279,2.0268,2.0275,2.0276,2.0248,2.0243,2.0226,2.0219,2.0225,2.0184,2.0191,2.0205,2.0226,2.0186,2.0168,2.0161,2.0252,2.0253,2.0253,2.0254,0,0,2.0288,2.0283,2.0276,2.027,2.0263,2.0249,2.0227,2.0212,2.0201,2.0192,2.0172,2.0149,2.0161,2.0152,2.0158,2.014,2.0099,2.0156,2.0156,2.0144,2.0051,2.0039,2.0031,2.0107,2.0105,2.0104,2.0051,0,2.024,2.0202,2.021,2.0172,2.0155,2.0172,2.0152,2.0145,2.0145,2.013,2.013,2.0112,2.0131,2.0126,2.0109,2.0108,2.008,2.0112,2.0086,2.0085,2.0085,2.0022,2.0009,1.9959,2.0045,2.0044,2.0043,0,2.0178,2.0167,2.0127,2.0123,2.0116,2.0098,2.0084,2.007,2.0062,2.0064,2.0054,2.0063,2.004,2.0064,2.003,2.0052,2.0042,2.004,2.0038,2.0033,2.0059,2.0013,1.9944,1.9935,2.0033,2.0033,2.0034,0,2.013,2.0106,2.0079,2.0074,2.0068,2.0055,2.0052,2.0046,2.0036,2.0024,2.0017,2.0003,1.9994,1.9982,1.9986,2.0004,1.9951,1.9976,1.9949,1.9949,1.9935,1.9936,1.9861,1.9934,1.9934,1.9934,1.9934,0,2.0073,2.0048,2.0057,2.004,2.0012,2.0021,1.9993,1.9992,1.9986,1.9968,1.9982,1.9965,1.9973,1.9956,1.9959,1.993,1.9926,1.9925,1.9926,1.9923,1.9922,1.9914,1.9917,1.9932,1.9932,1.9933,1.9933,0,2.0014,2.0019,1.999,1.9988,1.9987,1.9966,1.9963,1.9946,1.9949,1.9926,1.9921,1.9923,1.9904,1.9908,1.9886,1.9889,1.9851,1.9858,1.9854,1.9854,1.9827,1.9828,1.9742,1.973,1.9813,1.9812,1.9811,0,1.9976,1.9956,1.9952,1.9942,1.9938,1.9921,1.9911,1.992,1.9909,1.9899,1.9883,1.9866,1.9851,1.9819,1.9818,1.9802,1.9806,1.9777,1.9804,1.98,1.9803,1.9803,1.98,1.9771,1.977,1.9769,1.9769,0,1.9907,1.9911,1.9897,1.9883,1.9871,1.9861,1.9852,1.9843,1.9851,1.9838,1.9819,1.9808,1.9786,1.9768,1.9752,1.9748,1.9758,1.9761,1.9753,1.9748,1.9745,1.9744,1.9836,1.9762,1.9763,1.9763,1.9763,1.9764,1.9855,1.9838,1.9832,1.9816,1.9811,1.9802,1.9786,1.9786,1.9771,1.9754,1.9761,1.9738,1.9731,1.9711,1.9705,1.9687,1.9698,1.9688,1.9684,1.9681,1.9677,1.9751,1.9685,1.9685,1.9685,1.9685,1.9685,0,1.9784,1.9782,1.9767,1.9754,1.9741,1.9755,1.9746,1.9733,1.9713,1.9706,1.9692,1.9669,1.9652,1.965,1.9633,1.9618,1.9622,1.9613,1.9613,1.9611,1.9669,1.9676,1.961,1.961,1.961,1.961,1.961,1.961,1.9746,1.9718,1.9721,1.969,1.9688,1.9666,1.9659,1.9651,1.9645,1.9619,1.9605,1.9605,1.9599,1.9581,1.9565,1.9565,1.9557,1.9545,1.9546,1.96,1.9607,1.9614,1.9621,1.9544,1.9544,1.9489,1.9489,1.9488]}]]